Вернуться в каталог

STARLINK-34233

АктивенСвязьVLEO
NORAD 64172·PAYLOAD·🇺🇸 United States

Запущен May 28, 2025 с Cape Canaveral Space Force Station

Loading…

Ближайшие Пролёты (ближайшие 24 часа)

TLE

СвежийSource: CelesTrak SupGP

Эпоха: Sep 15, 2026, 03:22 UTC

1 64172C 25113C   26258.14076389  .00003560  00000+0  11448-3 0  2585
2 64172  53.1580 289.8688 0001212  94.2320 101.4506 15.31699189    19

Отслеживайте STARLINK-34233 в реальном времени с AllMySat

Download on the App Store